This demonstration page uses our WeatherBlox Daily Observations layout. Learn more.

Left ArrowRight Arrow

39.95238, -75.16362

Hourly Observations for May 28, 2015

Temp ( °F °C ) Dew Point ( °F °C ) Humidity (%) Winds ( mph kmh ) Pressure ( in mb ) Visibility ( mi km ) Precip ( " mm )
12:54 am 00:54 Mostly Cloudy 72 22.2 69 20.6 91 91 S 5 7 30.14 1021 10 16 0.00 0.00
1:54 am 01:54 Partly Cloudy 72 22.2 68 20 87 87 SSW 7 11 30.14 1021 10 16 0.00 0.00
2:54 am 02:54 Mostly Cloudy 71 21.7 67 19.4 87 87 S 6 9 30.13 1020 10 16 0.00 0.00
3:54 am 03:54 Partly Cloudy 71 21.7 67 19.4 87 87 S 8 13 30.13 1020 10 16 0.00 0.00
4:41 am 04:41 Mostly Clear 70 21.1 66 18.9 87 87 S 5 7 30.15 1021 8 13 0.00 0.00
4:54 am 04:54 Partly Cloudy 70 21.1 67 19.4 90 90 S 3 6 30.14 1021 8 13 0.00 0.00
5:54 am 05:54 Cloudy 71 21.7 67 19.4 87 87 S 3 6 30.15 1021 7 11 0.00 0.00
6:03 am 06:03 Cloudy 70 21.1 67 19.4 90 90 SE 3 6 30.15 1021 7 11 0.00 0.00
6:27 am 06:27 Cloudy 71 21.7 67 19.4 87 87 S 5 7 30.15 1021 10 16 0.00 0.00
6:41 am 06:41 Cloudy 71 21.7 67 19.4 87 87 SSW 5 7 30.15 1021 9 14 0.00 0.00
6:54 am 06:54 Cloudy 71 21.7 67 19.4 87 87 SSW 3 6 30.16 1021 8 13 0.00 0.00
7:54 am 07:54 Cloudy 73 22.8 69 20.6 87 87 WSW 5 7 30.17 1022 8 13 0.00 0.03
8:05 am 08:05 Cloudy 73 22.8 69 20.6 87 87 S 6 9 30.18 1022 8 13 0.00 0.00
8:54 am 08:54 Cloudy 74 23.3 69 20.6 85 85 SSW 6 9 30.18 1022 9 14 0.00 0.00
9:50 am 09:50 Mostly Cloudy 75 24 70 21 83 83 SW 8 13 30.18 1022 8 13 0.00 0.00
9:54 am 09:54 Mostly Cloudy 77 25 69 20.6 77 77 WSW 9 15 30.17 1022 8 13 0.00 0.00
10:54 am 10:54 Mostly Cloudy 79 26.1 69 20.6 72 72 W 8 13 30.18 1022 8 13 0.00 0.00
11:54 am 11:54 Mostly Cloudy 81 27.2 68 20 65 65 SW 9 15 30.17 1022 10 16 0.00 0.00
12:54 pm 12:54 Mostly Cloudy 85 29.4 68 20 57 57 WSW 6 9 30.16 1021 10 16 0.00 0.00
1:54 pm 13:54 Mostly Cloudy 85 29.4 66 18.9 53 53 SSW 7 11 30.14 1021 10 16 0.00 0.00
2:54 pm 14:54 Mostly Cloudy 88 31.1 64 17.8 45 45 SW 7 11 30.13 1020 10 16 0.00 0.00
3:54 pm 15:54 Cloudy 88 31.1 64 17.8 45 45 WSW 12 19 30.14 1021 10 16 0.00 0.03
4:54 pm 16:54 Cloudy 82 27.8 60 15.6 47 47 SW 13 20 30.14 1021 10 16 0.00 0.00
5:54 pm 17:54 Cloudy 84 28.9 64 17.8 51 51 SW 10 17 30.13 1020 10 16 0.00 0.00
6:54 pm 18:54 Mostly Cloudy 83 28.3 65 18.3 55 55 SSW 7 11 30.15 1021 10 16 0.00 0.00
7:54 pm 19:54 Mostly Cloudy 82 27.8 67 19.4 60 60 SW 6 9 30.16 1021 10 16 0.00 0.00
8:54 pm 20:54 Mostly Cloudy 79 26.1 67 19.4 67 67 SSW 6 9 30.17 1022 10 16 0.00 0.00
9:54 pm 21:54 Mostly Cloudy 77 25 69 20.6 77 77 SSW 6 9 30.19 1023 10 16 0.00 0.00
10:54 pm 22:54 Mostly Cloudy 78 25.6 65 18.3 64 64 ENE 10 17 30.22 1023 10 16 0.00 0.00
11:54 pm 23:54 Partly Cloudy 76 24.4 53 11.7 45 45 ENE 9 15 30.22 1023 10 16 0.00 0.00

Powered by AerisWeather